Tracking 19246 objects as of 19-Aug-2018
HD Live streaming from Space Station
objects crossing your sky now

LEMUR 2 KUNGFOO

Track LEMUR 2 KUNGFOO now!
10-day predictions
LEMUR 2 KUNGFOO is classified as:


NORAD ID: 42774
Int'l Code: 2017-036K
Perigee: 499.3 km
Apogee: 518.4 km
Inclination: 97.4 °
Period: 94.7 minutes
Semi major axis: 6879 km
RCS: Unknown
Launch date: June 23, 2017
Source: United States (US)
Launch site: SRIHARIKOTA (SRI)
aabbcc
Your satellite tracking list
Your tracking list is empty




NASA's NSSDC Master Catalog

Two Line Element Set (TLE):
1 42774U 17036K   18231.59264812 +.00001284 +00000-0 +60268-4 0  9994
2 42774 097.3965 289.9774 0013857 196.5350 163.5436 15.21371407064137
Source of the keplerian elements: AFSPC